Weather History for Souda, Greece

Change the Weather History Date:

Wednesday, October 9, 2013

  Actual Average Record
Temperature  
Mean Temperature 66 °F -  
Max Temperature 74 °F 72 °F 82 °F (1998)
Min Temperature 59 °F 57 °F 57 °F (2004)
Cooling Degree Days 2    
Growing Degree Days 16 (Base 50)    
Moisture  
Dew Point 56 °F    
Average Humidity 71    
Maximum Humidity 88    
Minimum Humidity 46    
Precipitation  
Precipitation 0.00 in 0.10 in - ()
Sea Level Pressure  
Sea Level Pressure 30.19 in    
Wind  
Wind Speed 4 mph ()    
Max Wind Speed 13 mph    
Max Gust Speed -    
Visibility 6.2 miles    
Events      
Averages and records for this station are not official NWS values.
T = Trace of Precipitation, MM = Missing Value Source: Averaged Metar Reports

Daily Weather History Graph

Daily Weather History Graph

Search for Another Location

Airport:

Trip Planner

Search our weather history database for the weather conditions in past years. The results will help you decide how hot, cold, wet, or windy it might be!

Date:

Astronomy

Oct. 09, 2013 Rise Set
Actual Time 7:24 AM EEST 6:56 PM EEST
Civil Twilight 6:59 AM EEST 7:21 PM EEST
Nautical Twilight 6:29 AM EEST 7:51 PM EEST
Astronomical Twilight 6:00 AM EEST 8:20 PM EEST
Moon 11:53 AM EEST (10/9) 10:19 PM EEST (10/9)
Length of Visible Light 12h 22m
Length of Day
11h 31m
Waxing Crescent, 22% of the Moon is Illuminated
Oct 9
Waxing Crescent
Oct 12
First Quarter
Oct 19
Full
Oct 27
Last Quarter
Nov 3
New

Hourly Weather History & Observations

Time (EEST) Temp. Dew Point Humidity Pressure Visibility Wind Dir Wind Speed Gust Speed Precip Events Conditions
12:20 AM 62.6 °F 57.2 °F 82% 30.24 in 6.2 mi SE 4.6 mph - N/A   Partly Cloudy
12:50 AM 62.6 °F 57.2 °F 82% 30.24 in 6.2 mi SSE 4.6 mph - N/A   Partly Cloudy
1:20 AM 62.6 °F 55.4 °F 77% 30.21 in 6.2 mi SSE 4.6 mph - N/A   Partly Cloudy
1:50 AM 62.6 °F 57.2 °F 82% 30.21 in 6.2 mi South 4.6 mph - N/A   Partly Cloudy
2:20 AM 62.6 °F 57.2 °F 82% 30.21 in 6.2 mi SSE 4.6 mph - N/A   Partly Cloudy
2:50 AM 60.8 °F 55.4 °F 82% 30.21 in 6.2 mi East 3.5 mph - N/A   Partly Cloudy
3:00 AM 62 °F 56 °F 74% 30.23 in 6 mi East 3.5 mph - -   Scattered Clouds
3:20 AM 60.8 °F 55.4 °F 82% 30.21 in 6.2 mi Calm Calm - N/A   Partly Cloudy
3:50 AM 60.8 °F 55.4 °F 82% 30.21 in 6.2 mi Calm Calm - N/A   Partly Cloudy
4:20 AM 60.8 °F 55.4 °F 82% 30.21 in 6.2 mi Calm Calm - N/A   Partly Cloudy
4:50 AM 59.0 °F 55.4 °F 88% 30.21 in 6.2 mi Calm Calm - N/A   Partly Cloudy
5:20 AM 59.0 °F 55.4 °F 88% 30.21 in 6.2 mi Calm Calm - N/A   Partly Cloudy
5:50 AM 59.0 °F 55.4 °F 88% 30.18 in 6.2 mi SSE 3.5 mph - N/A   Partly Cloudy
6:20 AM 59.0 °F 55.4 °F 88% 30.18 in 6.2 mi South 4.6 mph - N/A   Partly Cloudy
6:50 AM 59.0 °F 55.4 °F 88% 30.18 in 6.2 mi South 3.5 mph - N/A   Partly Cloudy
7:20 AM 59.0 °F 55.4 °F 88% 30.18 in 6.2 mi SSE 4.6 mph - N/A   Partly Cloudy
7:50 AM 59.0 °F 55.4 °F 88% 30.18 in 6.2 mi Calm Calm - N/A   Partly Cloudy
10:20 AM 68.0 °F 57.2 °F 68% 30.21 in 6.2 mi East 6.9 mph - N/A   Partly Cloudy
10:50 AM 69.8 °F 57.2 °F 64% 30.21 in 6.2 mi ENE 4.6 mph - N/A   Partly Cloudy
11:20 AM 69.8 °F 57.2 °F 64% 30.21 in 6.2 mi ENE 5.8 mph - N/A   Partly Cloudy
11:50 AM 71.6 °F 57.2 °F 60% 30.21 in 6.2 mi NE 8.1 mph - N/A   Partly Cloudy
12:20 PM 71.6 °F 57.2 °F 60% 30.21 in 6.2 mi East 5.8 mph - N/A   Partly Cloudy
12:50 PM 73.4 °F 57.2 °F 57% 30.18 in 6.2 mi East 5.8 mph - N/A   Partly Cloudy
1:20 PM 73.4 °F 57.2 °F 57% 30.18 in 6.2 mi East 8.1 mph - N/A   Partly Cloudy
1:50 PM 73.4 °F 55.4 °F 53% 30.18 in 6.2 mi East 6.9 mph - N/A   Partly Cloudy
2:20 PM 73.4 °F 55.4 °F 53% 30.18 in 6.2 mi East 6.9 mph - N/A   Partly Cloudy
2:50 PM 71.6 °F 55.4 °F 57% 30.18 in 6.2 mi ESE 12.7 mph - N/A   Partly Cloudy
3:00 PM 72 °F 56 °F 46% 30.18 in 6 mi ESE 12.7 mph - -   Scattered Clouds
3:20 PM 71.6 °F 55.4 °F 57% 30.18 in 6.2 mi ESE 12.7 mph - N/A   Partly Cloudy
3:50 PM 71.6 °F 55.4 °F 57% 30.18 in 6.2 mi East 9.2 mph - N/A   Partly Cloudy
4:20 PM 71.6 °F 55.4 °F 57% 30.18 in 6.2 mi East 9.2 mph - N/A   Partly Cloudy
4:50 PM 71.6 °F 55.4 °F 57% 30.18 in 6.2 mi ESE 8.1 mph - N/A   Partly Cloudy
5:20 PM 71.6 °F 55.4 °F 57% 30.18 in 6.2 mi ESE 8.1 mph - N/A   Partly Cloudy
5:50 PM 71.6 °F 55.4 °F 57% 30.15 in 6.2 mi East 9.2 mph - N/A   Partly Cloudy
6:20 PM 71.6 °F 55.4 °F 57% 30.15 in 6.2 mi East 9.2 mph - N/A   Partly Cloudy
6:50 PM 68.0 °F 57.2 °F 68% 30.15 in 6.2 mi East 6.9 mph - N/A   Partly Cloudy
7:20 PM 68.0 °F 57.2 °F 68% 30.15 in 6.2 mi East 6.9 mph - N/A   Partly Cloudy
7:50 PM 68.0 °F 57.2 °F 68% 30.15 in 6.2 mi East 4.6 mph - N/A   Partly Cloudy
8:20 PM 68.0 °F 57.2 °F 68% 30.15 in 6.2 mi East 4.6 mph - N/A   Partly Cloudy
8:50 PM 66.2 °F 57.2 °F 73% 30.18 in 6.2 mi Calm Calm - N/A   Partly Cloudy
9:00 PM 66 °F 57 °F 65% 30.18 in 6 mi Calm Calm - -   Scattered Clouds
9:20 PM 66.2 °F 57.2 °F 73% 30.18 in 6.2 mi Calm Calm - N/A   Partly Cloudy
9:50 PM 64.4 °F 57.2 °F 77% 30.15 in 6.2 mi SSE 5.8 mph - N/A   Partly Cloudy
10:20 PM 64.4 °F 57.2 °F 77% 30.15 in 6.2 mi SSE 5.8 mph - N/A   Partly Cloudy
10:50 PM 64.4 °F 57.2 °F 77% 30.15 in 6.2 mi SSE 4.6 mph - N/A   Partly Cloudy
11:20 PM 64.4 °F 57.2 °F 77% 30.15 in 6.2 mi SSE 4.6 mph - N/A   Partly Cloudy
11:50 PM 62.6 °F 55.4 °F 77% 30.15 in 6.2 mi Calm Calm - N/A   Partly Cloudy